Hourly Data Report for September 07, 2017

All times are specified in Local Standard Time (LST). Add 1 hour to adjust for Daylight Saving Time where and when it is observed.

MONCTON INTL A
NEW BRUNSWICK

46°06'44.000" N
64°40'43.000" W
70.70 m
8103201
71705
YQM

Download Data

Hourly Data (September 2017)
Hourly Data Report for September 7, 2017
Temp Definition
°C
Dew Point Temp Definition
°C
Rel Hum Definition
%
Wind Dir Definition
10's deg

Wind Spd Definition
km/h
Visibility Definition
km
Stn Press Definition
kPa
Hmdx Definition


Wind Chill Definition


Weather Definition


TIME
00:00 Legend Double Dagger 19.9 19.3 96 13 16 16.1 100.71     Rain
01:00 Legend Double Dagger 19.2 18.8 98 14 16 16.1 100.65     Rain
02:00 Legend Double Dagger 19.3 18.8 97 15 12 19.3 100.64     Rain
03:00 Legend Double Dagger 19.7 19.2 97 14 18 24.1 100.56     LegendNANA
04:00 Legend Double Dagger 20.0 19.6 97 14 14 19.3 100.50 27   Rain
05:00 Legend Double Dagger 20.3 19.8 97 15 18 11.3 100.44 28   Rain
06:00 Legend Double Dagger 20.5 19.9 97 14 18 16.1 100.35 28   Rain
07:00 Legend Double Dagger 20.7 20.1 96 15 27 16.1 100.25 28   Rain
08:00 Legend Double Dagger 20.7 20.1 96 15 23 8.1 100.16 28   Moderate Rain,Fog
09:00 Legend Double Dagger 20.7 20.1 96 16 22 6.4 100.10 28   Moderate Rain,Fog
10:00 Legend Double Dagger 21.6 20.7 95 17 27 8.1 100.04 30   Moderate Rain,Fog
11:00 Legend Double Dagger 20.8 19.9 94 18 22 12.9 100.04 28   Moderate Rain
12:00 Legend Double Dagger 21.8 20.8 94 17 19 24.1 99.90 30   Rain
13:00 Legend Double Dagger 22.4 21.3 94 17 29 24.1 99.84 31   LegendNANA
14:00 Legend Double Dagger 23.3 21.1 87 18 34 24.1 99.77 32   Mostly Cloudy
15:00 Legend Double Dagger 22.2 21.0 93 19 28 24.1 99.79 31   LegendNANA
16:00 Legend Double Dagger 21.3 17.9 81 19 26 24.1 99.76 27   LegendNANA
17:00 Legend Double Dagger 20.7 16.4 76 18 27 24.1 99.79 26   Cloudy
18:00 Legend Double Dagger 19.0 16.0 82 19 22 24.1 99.84     LegendNANA
19:00 Legend Double Dagger 18.1 14.8 81 19 21 24.1 99.86     LegendNANA
20:00 Legend Double Dagger 17.1 14.1 82 20 19 24.1 99.95     Mostly Cloudy
21:00 Legend Double Dagger 16.4 13.7 84 20 18 24.1 100.02     LegendNANA
22:00 Legend Double Dagger 15.3 13.3 87 19 18 24.1 100.06     LegendNANA
23:00 Legend Double Dagger 14.4 12.8 90 23 14 24.1 100.08     Mainly Clear

Notes on Data Quality.

Legend

  • E = Estimated
  • M = Missing
  • NA = Not Available
  • ‡ = Partner data that is not subject to review by the National Climate Archives
Date modified: